Radiation Dose at Monitoring Post of Fukushima Daini Nuclear Power Station
Date,Time,MP-1(microSv/h),MP-2(microSv/h),MP-3(microSv/h),MP-4(microSv/h),MP-5(microSv/h),MP-6(microSv/h),MP-7(microSv/h),Wind Direction,Wind Velocity(m/s),Rain
2024/04/25,00:00,0.145,0.127,0.203,0.190,0.202,0.114,0.076,southeast,9.8,Yes
2024/04/25,00:10,0.145,0.127,0.204,0.189,0.202,0.116,0.075,south-southeast,11.2,Yes
2024/04/25,00:20,0.145,0.127,0.204,0.191,0.202,0.115,0.076,southeast,11.2,Yes
2024/04/25,00:30,0.146,0.127,0.204,0.191,0.202,0.116,0.077,southeast,9.5,Yes
2024/04/25,00:40,0.146,0.128,0.204,0.190,0.202,0.115,0.077,southeast,9.2,Yes
2024/04/25,00:50,0.146,0.128,0.204,0.190,0.204,0.116,0.077,southeast,8.4,Yes
2024/04/25,01:00,0.146,0.128,0.205,0.191,0.201,0.116,0.077,southeast,7.2,Yes
2024/04/25,01:10,0.146,0.128,0.204,0.191,0.204,0.116,0.077,southeast,6.8,Yes
2024/04/25,01:20,0.145,0.128,0.204,0.189,0.202,0.115,0.076,southeast,5.5,Yes
2024/04/25,01:30,0.146,0.128,0.204,0.190,0.203,0.115,0.076,southeast,5.1,Yes
2024/04/25,01:40,0.145,0.128,0.204,0.190,0.202,0.115,0.076,southeast,3.3,Yes
2024/04/25,01:50,0.145,0.127,0.205,0.190,0.202,0.115,0.077,east-northeast,4.2,Yes
2024/04/25,02:00,0.145,0.127,0.203,0.188,0.201,0.116,0.076,southeast,2.9,Yes
2024/04/25,02:10,0.145,0.128,0.204,0.190,0.202,0.116,0.078,southeast,2.2,Yes
2024/04/25,02:20,0.146,0.128,0.204,0.191,0.202,0.115,0.078,east,1.3,Yes
2024/04/25,02:30,0.146,0.128,0.203,0.190,0.202,0.116,0.078,-,CALM,Yes
2024/04/25,02:40,0.145,0.128,0.203,0.191,0.202,0.114,0.077,-,CALM,Yes
2024/04/25,02:50,0.145,0.128,0.203,0.189,0.202,0.115,0.077,-,CALM,Yes
2024/04/25,03:00,0.145,0.127,0.204,0.190,0.202,0.114,0.077,-,CALM,Yes
2024/04/25,03:10,0.145,0.127,0.202,0.189,0.201,0.114,0.076,north-northwest,4.9,Yes
2024/04/25,03:20,0.144,0.127,0.200,0.189,0.203,0.113,0.076,north-northwest,5.4,Yes
2024/04/25,03:30,0.144,0.127,0.204,0.189,0.201,0.114,0.077,north-northwest,7.0,Yes
2024/04/25,03:40,0.144,0.126,0.202,0.187,0.202,0.114,0.076,north-northwest,6.8,Yes
2024/04/25,03:50,0.144,0.127,0.202,0.190,0.201,0.114,0.076,north-northwest,7.1,Yes
2024/04/25,04:00,0.144,0.127,0.201,0.188,0.203,0.114,0.076,north-northwest,7.4,Yes
2024/04/25,04:10,0.143,0.128,0.201,0.188,0.201,0.114,0.075,northwest,8.2,Yes
2024/04/25,04:20,0.144,0.127,0.202,0.187,0.203,0.114,0.075,northwest,8.2,Yes
2024/04/25,04:30,0.144,0.126,0.201,0.189,0.201,0.112,0.076,northwest,8.2,Yes
2024/04/25,04:40,0.144,0.127,0.203,0.190,0.202,0.113,0.075,northwest,8.4,Yes
2024/04/25,04:50,0.144,0.126,0.203,0.187,0.201,0.113,0.075,northwest,8.1,No
2024/04/25,05:00,0.143,0.126,0.201,0.189,0.201,0.114,0.075,northwest,7.7,No
2024/04/25,05:10,0.143,0.126,0.202,0.187,0.202,0.112,0.075,northwest,7.0,No
2024/04/25,05:20,0.143,0.126,0.200,0.189,0.200,0.112,0.075,northwest,6.7,No
2024/04/25,05:30,0.143,0.125,0.201,0.188,0.201,0.113,0.074,northwest,7.3,No
2024/04/25,05:40,0.143,0.126,0.200,0.188,0.200,0.112,0.074,northwest,7.1,No
2024/04/25,05:50,0.143,0.126,0.203,0.187,0.202,0.112,0.074,northwest,6.6,No
2024/04/25,06:00,0.142,0.125,0.201,0.188,0.199,0.113,0.074,northwest,6.3,No
2024/04/25,06:10,0.143,0.126,0.201,0.188,0.201,0.112,0.074,northwest,6.3,No
2024/04/25,06:20,0.143,0.125,0.201,0.186,0.201,0.112,0.075,northwest,4.7,No
2024/04/25,06:30,0.143,0.125,0.201,0.189,0.202,0.112,0.074,northwest,4.1,No
2024/04/25,06:40,0.143,0.125,0.202,0.186,0.200,0.112,0.074,northwest,4.3,No
2024/04/25,06:50,0.143,0.125,0.200,0.188,0.202,0.112,0.074,northwest,4.0,No
2024/04/25,07:00,0.143,0.124,0.202,0.188,0.201,0.112,0.073,northwest,3.8,No
2024/04/25,07:10,0.142,0.126,0.200,0.187,0.201,0.112,0.074,northwest,4.4,No
2024/04/25,07:20,0.144,0.124,0.198,0.187,0.202,0.113,0.074,northwest,3.7,No
2024/04/25,07:30,0.142,0.125,0.200,0.185,0.201,0.113,0.073,northwest,5.6,No
2024/04/25,07:40,0.143,0.125,0.200,0.186,0.201,0.113,0.073,northwest,5.5,No
2024/04/25,07:50,0.142,0.124,0.199,0.188,0.200,0.112,0.073,west-northwest,3.7,No
2024/04/25,08:00,0.143,0.125,0.199,0.186,0.202,0.112,0.074,northwest,3.2,No
2024/04/25,08:10,0.142,0.126,0.199,0.185,0.200,0.112,0.073,west-northwest,3.0,No
2024/04/25,08:20,0.140,0.124,0.197,0.187,0.201,0.111,0.074,northwest,4.5,No
2024/04/25,08:30,0.142,0.125,0.201,0.188,0.202,0.112,0.073,northwest,5.5,No
2024/04/25,08:40,0.143,0.126,0.202,0.187,0.200,0.111,0.073,north-northwest,4.0,No
2024/04/25,08:50,0.142,0.124,0.201,0.185,0.201,0.112,0.072,northwest,4.3,No
2024/04/25,09:00,0.141,0.125,0.201,0.187,0.203,0.113,0.072,west-northwest,3.1,No
2024/04/25,09:10,0.141,0.126,0.200,0.189,0.200,0.111,0.072,northwest,2.5,No
2024/04/25,09:20,0.143,0.125,0.199,0.188,0.200,0.110,0.073,west-northwest,6.1,No
2024/04/25,09:30,0.144,0.125,0.200,0.187,0.200,0.113,0.073,west-northwest,7.5,No
2024/04/25,09:40,0.142,0.123,0.200,0.187,0.203,0.113,0.073,west-northwest,6.1,No
2024/04/25,09:50,0.142,-,0.201,0.187,0.202,0.112,0.074,west-northwest,5.0,No
2024/04/25,10:00,0.141,-,0.201,0.186,0.200,0.112,0.074,west,3.6,No
2024/04/25,10:10,0.144,-,0.202,0.186,0.200,0.112,0.073,northwest,3.6,No
2024/04/25,10:20,0.144,-,0.201,0.186,0.199,0.112,0.073,west-northwest,7.1,No
2024/04/25,10:30,0.143,-,0.201,0.188,0.202,0.113,0.074,west-northwest,8.6,No
2024/04/25,10:40,0.142,-,0.201,0.190,0.204,0.113,0.074,west-northwest,9.6,No
2024/04/25,10:50,0.142,-,0.201,0.189,0.203,0.113,0.074,west-northwest,7.4,No
2024/04/25,11:00,0.142,-,0.201,0.189,0.201,0.112,0.073,west-northwest,7.2,No
2024/04/25,11:10,0.144,-,0.202,0.189,0.201,0.113,0.074,west,8.1,No
2024/04/25,11:20,0.144,-,0.203,0.188,0.200,0.112,0.073,west,7.0,No
2024/04/25,11:30,0.143,-,0.201,0.188,0.200,0.112,0.074,west,9.3,No
2024/04/25,11:40,0.144,-,0.202,0.187,0.200,0.112,0.073,west,5.4,No
2024/04/25,11:50,0.143,-,0.203,0.186,0.200,0.113,0.074,west-northwest,5.4,No
2024/04/25,12:00,0.143,-,0.202,0.188,0.201,0.114,0.073,west,7.2,No
2024/04/25,12:10,0.142,-,0.202,0.187,0.202,0.114,0.074,west,7.8,No
2024/04/25,12:20,0.142,-,0.203,0.188,0.201,0.114,0.073,west,8.6,No
2024/04/25,12:30,0.142,-,0.204,0.188,0.201,0.112,0.073,west,8.1,No
2024/04/25,12:40,0.142,-,0.202,0.189,0.202,0.113,0.073,west,10.3,No
2024/04/25,12:50,0.142,-,0.204,0.189,0.202,0.114,0.074,west-northwest,9.6,No
2024/04/25,13:00,0.145,-,0.204,0.190,0.201,0.113,0.075,west-northwest,7.6,No
2024/04/25,13:10,0.145,-,0.204,0.191,0.202,0.113,0.074,west-northwest,8.1,No
2024/04/25,13:20,0.144,-,0.204,0.191,0.201,0.113,0.074,west-northwest,8.1,No
2024/04/25,13:30,0.144,-,0.203,0.191,0.201,0.114,0.075,west,9.6,No
2024/04/25,13:40,0.143,-,0.203,0.190,0.203,0.113,0.074,west,11.5,No
2024/04/25,13:50,0.143,-,0.202,0.189,0.202,0.114,0.074,west,10.3,No
2024/04/25,14:00,0.145,-,0.203,0.189,0.202,0.114,0.073,west-northwest,10.3,No
2024/04/25,14:10,0.144,-,0.202,0.188,0.205,0.115,0.073,west-northwest,13.6,No
2024/04/25,14:20,0.145,-,0.203,0.191,0.206,0.114,0.075,west-northwest,12.2,No
2024/04/25,14:30,0.144,-,0.202,0.191,0.203,0.113,0.075,west-northwest,12.0,No
2024/04/25,14:40,0.146,-,0.203,0.190,0.203,0.114,0.074,west,14.2,No
2024/04/25,14:50,0.145,-,0.204,0.189,0.203,0.114,0.074,west-northwest,15.1,No
2024/04/25,15:00,0.144,-,0.206,0.190,0.204,0.114,0.074,west-northwest,15.4,No
2024/04/25,15:10,0.145,-,0.207,0.192,0.206,0.114,0.074,west,15.4,No
2024/04/25,15:20,0.146,-,0.204,0.191,0.203,0.114,0.074,west-northwest,16.4,No
2024/04/25,15:30,0.144,-,0.205,0.191,0.202,0.113,0.075,west-northwest,13.4,No
2024/04/25,15:40,0.144,-,0.206,0.192,0.203,0.114,0.075,west-northwest,11.7,No
2024/04/25,15:50,0.146,-,0.206,0.191,0.205,0.114,0.075,west-northwest,11.2,No
2024/04/25,16:00,0.144,-,0.207,0.193,0.204,0.114,0.075,west-northwest,10.4,No
2024/04/25,16:10,0.145,-,0.205,0.190,0.202,0.114,0.074,west-northwest,10.1,No
2024/04/25,16:20,0.146,-,0.207,0.192,0.202,0.113,0.075,west-northwest,7.9,No
2024/04/25,16:30,0.145,-,0.206,0.191,0.202,0.113,0.075,west-northwest,8.4,No
2024/04/25,16:40,0.146,-,0.206,0.192,0.203,0.114,0.075,west-northwest,8.2,No
2024/04/25,16:50,0.145,0.126,0.206,0.193,0.205,0.114,0.075,west-northwest,8.1,No
2024/04/25,17:00,0.145,0.127,0.206,0.191,0.204,0.115,0.075,west-northwest,8.2,No
2024/04/25,17:10,0.145,0.127,0.207,0.193,0.203,0.115,0.074,west-northwest,8.8,No
2024/04/25,17:20,0.146,0.128,0.205,0.192,0.205,0.115,0.075,west-northwest,8.7,No
2024/04/25,17:30,0.147,0.127,0.207,0.193,0.204,0.114,0.074,west-northwest,5.0,No
2024/04/25,17:40,0.145,0.128,0.205,0.191,0.204,0.114,0.075,west-northwest,6.5,No
2024/04/25,17:50,0.146,0.128,0.206,0.192,0.206,0.114,0.075,west-northwest,7.9,No
2024/04/25,18:00,0.145,0.128,0.206,0.191,0.204,0.115,0.076,west-northwest,8.1,No
2024/04/25,18:10,0.146,0.127,0.207,0.193,0.206,0.114,0.075,west-northwest,6.4,No
2024/04/25,18:20,0.145,0.129,0.206,0.192,0.204,0.114,0.075,west-northwest,4.6,No
2024/04/25,18:30,0.146,0.127,0.207,0.193,0.206,0.116,0.075,west,6.6,No
2024/04/25,18:40,0.145,0.128,0.206,0.192,0.203,0.115,0.075,west-northwest,7.5,No
2024/04/25,18:50,0.145,0.127,0.207,0.193,0.207,0.115,0.075,west-northwest,8.2,No
2024/04/25,19:00,0.145,0.128,0.208,0.192,0.204,0.115,0.075,west-northwest,9.2,No
2024/04/25,19:10,0.146,0.128,0.206,0.192,0.205,0.113,0.075,west,7.6,No
2024/04/25,19:20,0.146,0.128,0.207,0.192,0.203,0.115,0.074,west,7.0,No
2024/04/25,19:30,0.146,0.127,0.205,0.192,0.205,0.115,0.075,west-northwest,3.6,No
2024/04/25,19:40,0.146,0.127,0.207,0.192,0.204,0.115,0.074,west,4.6,No
2024/04/25,19:50,0.147,0.128,0.205,0.191,0.207,0.114,0.075,west-northwest,5.5,No
2024/04/25,20:00,0.145,0.128,0.205,0.192,0.204,0.115,0.075,west,7.6,No
2024/04/25,20:10,0.145,0.128,0.206,0.193,0.206,0.114,0.075,west-northwest,4.9,No
2024/04/25,20:20,0.145,0.128,0.206,0.192,0.204,0.115,0.075,west,1.0,No
2024/04/25,20:30,0.145,0.128,0.207,0.191,0.206,0.114,0.074,west-northwest,1.4,No
2024/04/25,20:40,0.145,0.127,0.206,0.192,0.203,0.115,0.075,west,2.6,No
2024/04/25,20:50,0.146,0.128,0.207,0.192,0.205,0.114,0.075,west-northwest,1.8,No
2024/04/25,21:00,0.145,0.128,0.207,0.194,0.204,0.115,0.076,west,3.4,No
2024/04/25,21:10,0.145,0.127,0.207,0.191,0.204,0.114,0.075,west-northwest,2.6,No
2024/04/25,21:20,0.145,0.128,0.208,0.192,0.204,0.115,0.075,west-northwest,5.6,No
2024/04/25,21:30,0.146,0.128,0.206,0.192,0.205,0.114,0.075,west-northwest,4.3,No
2024/04/25,21:40,0.146,0.128,0.206,0.192,0.204,0.114,0.075,west-northwest,3.8,No
2024/04/25,21:50,0.147,0.127,0.207,0.192,0.205,0.114,0.074,west-northwest,2.7,No
2024/04/25,22:00,0.146,0.128,0.206,0.192,0.204,0.114,0.074,west,3.2,No
2024/04/25,22:10,0.146,0.127,0.206,0.192,0.206,0.114,0.075,west-southwest,2.3,No
2024/04/25,22:20,0.146,0.127,0.207,0.191,0.203,0.114,0.075,west-northwest,1.9,No
2024/04/25,22:30,0.144,0.128,0.207,0.193,0.205,0.114,0.075,west-northwest,2.2,No
2024/04/25,22:40,0.147,0.128,0.206,0.192,0.204,0.114,0.075,west-northwest,2.5,No
2024/04/25,22:50,0.145,0.128,0.206,0.193,0.204,0.115,0.076,west,2.1,No
2024/04/25,23:00,0.146,0.129,0.207,0.193,0.205,0.115,0.075,west-northwest,1.9,No
2024/04/25,23:10,0.145,0.128,0.206,0.192,0.203,0.115,0.075,west-northwest,1.4,No
2024/04/25,23:20,0.145,0.128,0.206,0.194,0.205,0.115,0.074,west-northwest,1.8,No
2024/04/25,23:30,0.145,0.128,0.206,0.193,0.205,0.114,0.075,west-northwest,2.1,No
2024/04/25,23:40,0.146,0.128,0.207,0.193,0.206,0.115,0.075,west,0.9,No
2024/04/25,23:50,0.146,0.128,0.205,0.192,0.204,0.115,0.075,-,CALM,No
